Home > Weather > Ho Chi Minh > Past weeks

Flag for Vietnam Weather for the Past 2 Weeks in Ho Chi Minh, Vietnam

Now
70 °F

Passing clouds.


Feels Like: 70 °F
Forecast: 68 / 90 °F
Wind: 3 mph from West

Location: Ho Chi Minh

Current Time: Feb 9, 2016 at 4:23:33 AM

Latest Report: Feb 9, 2016 at 4:00 AM


Visibility: N/A

Pressure: 29.89 "Hg

Humidity: 73%

Dew point: 61 °F

Location of Ho Chi MinhLocation

Historic Weather in Ho Chi Minh — Graph

°F

Ho Chi Minh Temperature Yesterday

Maximum temperature yesterday: 88 °F (at 3:00 PM)
Minimum temperature yesterday: 64 °F (at 4:30 AM)
Average temperature yesterday: 75 °F

High & Low Weather Summary for the Past Weeks

 TemperatureHumidityPressure
High97 °F (Jan 31, 1:30 PM)83% (Jan 29, 7:00 AM)30.04 "Hg (Jan 29, 7:00 AM)
Low64 °F (Feb 8, 4:30 AM)25% (Feb 7, 4:30 PM)29.74 "Hg (Feb 5, 2:30 PM)
Average83 °F57%29.88 "Hg
* Reported Jan 25 3:00 AM — Feb 9 3:00 AM, Ho Chi Minh, Weather by CustomWeather, © 2016

Note: Actual official high and low records may vary slightly from our data, if they occured in-between our weather recording intervals... More about our weather records

Advertising

Ho Chi Minh Weather History for the Previous 24 Hours

 ConditionsComfort  
Time TempWeatherWind HumidityBarometerVisibility
3:00 AM
Tue, Feb 9
70 °FPassing clouds.7 mph73%29.89 "HgN/A
2:30 AM70 °FPassing clouds.5 mph73%29.89 "HgN/A
2:00 AM72 °FPassing clouds.3 mph73%29.89 "HgN/A
1:30 AM72 °FPassing clouds.5 mph69%29.89 "HgN/A
1:00 AM73 °FPassing clouds.5 mph69%29.92 "HgN/A
12:30 AM72 °FPassing clouds.3 mph69%29.92 "HgN/A
12:00 AM73 °FPassing clouds.7 mph65%29.95 "HgN/A
11:30 PM
Mon, Feb 8
75 °FPassing clouds.5 mph61%29.92 "HgN/A
11:00 PM73 °FPassing clouds.5 mph65%29.92 "HgN/A
10:30 PM75 °FPassing clouds.6 mph65%29.95 "HgN/A
10:00 PM77 °FPassing clouds.7 mph61%29.95 "HgN/A
9:30 PM77 °FPassing clouds.8 mph57%29.92 "HgN/A
9:00 PM77 °FPassing clouds.8 mph54%29.92 "HgN/A
8:30 PM73 °FPassing clouds.3 mph57%29.92 "HgN/A
8:00 PM73 °FPassing clouds.5 mph61%29.89 "HgN/A
7:30 PM77 °FPassing clouds.7 mph57%29.89 "HgN/A
7:00 PM77 °FPassing clouds.7 mph54%29.89 "HgN/A
6:30 PM79 °FPassing clouds.9 mph51%29.86 "HgN/A
6:00 PM81 °FPassing clouds.6 mph45%29.86 "HgN/A
5:30 PM82 °FPassing clouds.8 mph42%29.86 "HgN/A
5:00 PM84 °FPassing clouds.7 mph37%29.83 "HgN/A
4:30 PM86 °FPassing clouds.6 mph35%29.83 "HgN/A
4:00 PM86 °FPassing clouds.3 mph33%29.83 "HgN/A
3:30 PM88 °FPassing clouds.3 mph33%29.83 "HgN/A
3:00 PM88 °FPassing clouds.2 mph31%29.83 "HgN/A
2:30 PM86 °FPassing clouds.6 mph33%29.86 "HgN/A
2:00 PM86 °FPassing clouds.2 mph31%29.86 "HgN/A
1:30 PM86 °FPassing clouds.3 mph33%29.89 "HgN/A
1:00 PM86 °FPassing clouds.2 mph33%29.89 "HgN/A
12:30 PM86 °FPassing clouds.6 mph33%29.92 "HgN/A
12:00 PM84 °FPassing clouds.3 mph35%29.95 "HgN/A
11:30 AM82 °FPassing clouds.2 mph40%29.95 "HgN/A
11:00 AM81 °FPassing clouds.2 mph42%29.98 "HgN/A
10:30 AM77 °FPassing clouds.3 mph44%30.01 "HgN/A
10:00 AM75 °FPassing clouds.3 mph50%30.01 "HgN/A
9:30 AM73 °FPassing clouds.2 mph53%30.01 "Hg5 mi
9:00 AM72 °FPassing clouds.3 mph57%30.01 "Hg5 mi
8:30 AM70 °FPassing clouds.5 mph57%30.01 "Hg5 mi
8:00 AM68 °FPassing clouds.6 mph60%29.98 "Hg5 mi
7:30 AM66 °FScattered clouds.3 mph64%29.98 "Hg5 mi
7:00 AM64 °FScattered clouds.6 mph68%29.98 "Hg5 mi
6:30 AM64 °FPassing clouds.5 mph64%29.98 "Hg4 mi
6:00 AM64 °FPassing clouds.6 mph64%29.98 "HgN/A
5:30 AM64 °FPassing clouds.6 mph64%29.95 "HgN/A
5:00 AM64 °FPassing clouds.6 mph64%29.95 "HgN/A
4:30 AM64 °FPassing clouds.6 mph64%29.95 "HgN/A
4:00 AM66 °FPassing clouds.7 mph60%29.95 "HgN/A
Weather by CustomWeather, © 2016

See weather overviewHow to use our weather pages